COSMOS 1275 DEB

Satellite information

Favourite Embed

Satellite Type and Status

DEBRISIN ORBIT

Key statistics

Satellite COSMOS 1275 DEB at a glance.

Uptime

16049

Days in orbit

Revolutions

≈ 14.0

Per day

Orbit

LEO

Low Earth Orbit

Inclination

83.3

Latest

Satellite identification and parameters

Extended collection of information and parameters for COSMOS 1275 DEB.

Object identification

Identified? True

Debris? True

Object name: COSMOS 1275 DEB

International designator: 1981-053LS

Object number (NORAD): 18505

Object ID (CCSDS): 18505

Country: COMMONWEALTH OF INDEPENDENT STATES (CIS)

Current information (Y/N): Y

RCS size: SMALL

Orbital parameters

Period: 102.924 minutes

Inclination: 83.2881 deg

SMA: 7275.068 km

Apoapsis: 951.645 km

Periapsis: 842.222 km

RAAN: 15.2197 deg

Eccentricy: 0.0075204

Argument of periapsis: 55.9907 deg

Mean anomaly: 304.8376 deg

Mean motion: 13.99094875 rev/day

Mean motion (dot): 0.00002483 rev/day2

B* drag term: 0.001664 1/REarth

Two-line elements (TLE)

Creation date: May 12, 2025, 2:31 a.m.

Reference frame: TEME

Reference center: EARTH

Epoch: May 11, 2025, 3:31 p.m. UTC

TLE line 0: 0 COSMOS 1275 DEB

TLE line 1: 1 18505U 81053LS 25131.64681594 .00002483 00000-0 16640-2 0 9997

TLE line 2: 2 18505 83.2881 15.2197 0075204 55.9907 304.8376 13.99094875 17126

Live tracking on map

Real-time ground track for satellite COSMOS 1275 DEB.

In-orbit conjunctions

A list of the most updated potential collisions computed for object COSMOS 1275 DEB.

Target Orbit TCA Probability of collision Miss distance Type
COSMOS 626 LEO 2024-08-13 10:06:27 0.0001344362 562.0 (m) PAYLOAD

Associated space launch

Navigation satellite providing location information for the Tsiklon-B navigation system

COSMOS 1275 DEB was lifted into orbit during the mission ‘Kosmos-3M | Parus 27’, on board a Kosmos-3M space rocket.

The launch took place on June 4, 1981, 3:41 p.m. from 132/2.

For more information about the launch, click the button.

Launch to space Kosmos-3M | Parus 27
Kosmos-3M | Parus 27

Agency: N/A

Status: Launch Successful

Launch date: June 4, 1981, 3:41 p.m. UTC

Rocket: Kosmos-3M

Launch pad: 132/2

Location: Plesetsk Cosmodrome, Russian Federation

...

Latest news about this satellite

There are no fresh news available about this satellite. Check back as we update our databases every day.


Newsletter sign-up

Weekly statistics, charts and insights to help you stay on top of the space industry.